Location: 相模原市立博物館
(35.5593°N, 139.3931°E)
Time: 14:27:30
(UTC+09:00)

METEOR M2 - Visible Passes

Search period start: 25 January 2022 00:00
Search period end: 04 February 2022 00:00
Orbit: 818 x 827 km, 98.4° (Epoch: 24 January)

Date Brightness Start Highest point End Pass type
(mag) Time Alt. Az. Time Alt. Az. Time Alt. Az.
25 Jan ? 06:17:24 10° NNE 06:22:15 33° E 06:27:04 10° SSE visible
25 Jan ? 17:36:53 10° SE 17:41:51 40° ENE 17:46:49 10° N visible
25 Jan ? 19:18:05 10° SW 19:22:05 22° W 19:26:09 10° NW visible
26 Jan ? 05:58:07 10° NE 06:02:12 22° E 06:06:15 10° SE visible
26 Jan ? 18:57:16 10° SSW 19:02:03 33° W 19:06:52 10° NNW visible
27 Jan ? 05:39:29 10° ENE 05:42:05 14° E 05:44:41 10° ESE visible
27 Jan ? 18:36:51 10° S 18:42:03 52° W 18:47:17 10° NNW visible
28 Jan ? 18:16:46 10° S 18:22:06 82° WSW 18:27:29 10° NNW visible
29 Jan ? 17:56:57 10° SSE 18:02:12 65° ENE 18:07:31 10° N visible
29 Jan ? 19:40:20 10° WSW 19:42:46 13° W 19:45:13 10° WNW visible
30 Jan ? 17:37:24 10° SE 17:42:22 41° ENE 17:47:23 10° N visible
30 Jan ? 19:18:42 10° SW 19:22:39 21° W 19:26:39 10° NW visible
31 Jan ? 05:58:37 10° NE 06:02:46 22° E 06:06:52 10° SE visible
31 Jan ? 18:57:50 10° SSW 19:02:36 33° W 19:07:23 10° NNW visible
01 Feb ? 05:39:54 10° ENE 05:42:39 14° E 05:45:23 10° ESE visible
01 Feb ? 18:37:25 10° S 18:42:36 51° W 18:47:49 10° NNW visible
02 Feb ? 18:17:18 10° S 18:22:39 80° WSW 18:28:01 10° NNW visible
03 Feb ? 17:57:28 10° SSE 18:02:45 66° ENE 18:08:04 10° N visible
03 Feb ? 19:41:02 10° WSW 19:43:20 13° W 19:45:38 10° WNW visible
